Theta_e
355 364 367 367 366 365 365 364 363 362 361 361 361 361 362 361 361 362 363 362 361 362 361 361 360 359 358 356 354 355 356 356 355 353 354 354 353 353 354 353 353 345 349
358 363 367 366 365 365 364 364 362 361 361 361 361 360 363 363 362 362 362 362 362 363 362 360 358 358 357 355 354 354 354 354 356 354 353 352 352 351 351 351 351 347 348
357 362 366 365 365 364 364 363 362 361 361 361 361 361 363 363 363 362 362 363 363 364 362 359 358 357 355 354 353 353 353 354 354 353 352 346 345 350 350 348 349 348 347
357 358 363 365 364 364 363 362 361 361 361 361 360 361 363 362 363 363 363 363 363 363 360 360 358 356 354 353 353 353 353 353 354 353 350 350 343 351 351 351 350 348 348
354 358 363 365 364 364 363 361 361 361 361 361 360 361 362 362 362 362 362 362 362 361 360 359 357 355 354 353 352 353 354 354 354 353 349 348 343 352 354 353 351 351 352
353 360 364 364 363 363 363 362 361 360 360 361 360 361 362 361 361 361 361 361 361 359 357 356 355 354 353 352 352 353 353 353 353 346 347 348 346 357 356 355 354 357 355
353 360 363 364 363 363 363 362 361 360 360 360 360 361 362 361 361 361 360 359 359 357 355 354 354 355 353 352 351 352 353 353 349 347 348 350 349 353 357 356 356 356 357
355 359 361 364 363 362 362 361 360 359 359 360 360 360 361 360 360 360 360 359 359 357 355 354 354 354 353 353 353 352 353 351 348 345 343 341 348 352 355 357 356 356 357
356 356 359 361 362 362 361 360 359 359 359 359 358 359 360 360 360 360 360 359 358 356 355 354 354 353 352 351 351 350 351 351 343 343 344 351 358 360 358 360 359 359 358
354 353 356 358 357 359 359 360 359 359 359 358 358 359 359 359 359 359 357 357 357 355 354 353 352 351 350 350 350 349 350 351 339 336 348 354 357 356 356 356 356 358 357
352 351 352 355 356 356 357 359 359 360 359 358 358 358 355 355 355 356 355 357 356 355 353 352 351 350 349 350 350 350 350 340 333 334 348 356 357 354 352 352 352 352 351
349 347 349 350 351 353 357 355 355 355 354 353 354 354 349 350 348 351 354 357 356 354 353 351 351 350 350 341 339 348 343 340 333 342 347 355 356 353 351 349 348 347 346
349 347 347 347 346 347 352 352 353 352 351 349 351 349 342 347 347 346 349 350 346 351 344 347 345 345 342 340 337 335 336 334 340 343 347 353 354 351 348 345 345 346 346
347 346 347 346 344 343 350 348 348 347 346 344 346 345 340 343 342 346 345 343 341 340 340 338 338 339 337 337 338 340 339 343 343 343 345 351 349 349 344 345 344 344 345
347 346 345 345 343 344 344 342 343 341 342 341 344 343 341 342 342 345 344 342 341 339 338 337 337 338 338 341 347 347 344 345 344 344 340 348 347 347 344 341 340 339 338
347 346 346 344 343 344 339 340 340 340 339 340 343 339 341 344 342 341 344 339 337 338 339 339 340 340 344 347 345 346 346 345 343 341 338 340 346 345 343 338 336 334 334
348 348 346 345 347 342 339 341 341 340 339 339 342 339 340 345 343 342 344 339 339 342 341 348 349 348 346 345 345 346 343 345 344 337 336 336 341 343 340 338 333 331 330
350 347 347 347 348 343 341 343 343 342 341 342 343 340 340 346 345 343 341 338 341 347 349 349 347 343 343 342 343 344 342 339 335 332 335 336 336 334 336 337 336 334 329
347 349 348 348 349 346 344 345 346 344 344 345 344 341 340 348 345 343 339 337 347 349 346 346 347 343 341 339 338 340 336 333 329 334 331 330 332 331 328 334 337 337 333
341 352 351 352 349 350 347 345 348 347 345 346 345 342 346 347 345 341 338 346 352 348 343 343 343 342 339 336 337 335 333 329 327 330 328 329 329 328 328 328 329 329 337
324 349 350 350 350 351 347 344 346 346 344 345 345 344 345 346 344 341 348 349 346 343 342 341 342 337 333 331 330 326 331 328 327 330 331 328 331 329 330 329 328 324 329
313 349 349 350 349 348 350 347 347 346 342 345 346 345 345 345 343 343 348 346 346 343 342 341 339 334 332 328 321 322 319 324 328 329 330 330 331 331 331 329 325 324 322
312 341 349 349 349 349 350 347 347 346 342 345 343 344 344 345 343 349 348 347 345 343 338 336 335 332 328 327 327 322 315 315 318 325 330 333 331 330 327 326 320 320 320
312 322 349 351 350 350 350 348 345 343 341 343 342 343 344 343 346 350 348 347 343 340 336 332 331 329 327 325 328 329 326 322 315 313 318 317 317 316 316 316 313 313 316
316 315 348 351 352 351 349 349 346 344 343 344 343 343 342 340 348 349 345 342 339 336 332 330 330 329 328 326 324 322 318 318 315 313 309 310 311 312 312 314 312 311 314
312 321 350 351 351 351 350 348 347 345 341 342 342 340 340 345 345 342 340 337 336 334 331 330 330 328 325 321 319 318 317 313 310 309 306 305 305 307 309 310 311 311 313
Wind_Speed
7 12 19 22 21 21 20 20 19 18 18 18 18 17 16 16 17 18 18 17 15 13 13 12 11 11 11 10 10 10 10 10 10 11 11 12 13 11 9 10 9 8 8
16 12 18 21 21 22 21 21 20 19 18 17 17 16 16 16 16 16 16 15 14 12 13 12 10 10 9 9 8 8 7 7 7 8 9 8 11 11 10 10 10 7 6
16 11 15 20 21 21 21 20 20 20 18 17 17 16 15 16 15 15 14 14 12 13 13 12 10 8 7 7 6 4 4 5 4 4 6 3 3 8 9 8 7 6 4
17 10 13 20 21 21 21 21 19 19 18 17 16 16 14 16 15 14 13 13 13 12 12 11 9 8 6 5 4 2 1 2 2 1 1 4 4 8 8 6 5 4 3
16 11 13 19 20 22 21 21 20 19 18 17 17 16 13 16 14 13 13 12 12 13 12 10 8 7 6 4 2 1 3 4 4 4 4 7 6 7 7 5 4 4 4
17 13 16 20 20 21 22 21 20 19 18 17 17 16 14 15 12 13 12 12 12 11 11 9 8 6 5 4 1 2 4 5 7 5 4 4 5 8 6 4 2 2 3
16 14 13 19 21 21 22 22 21 19 18 18 17 16 15 15 14 13 11 11 11 11 10 9 7 6 4 3 1 3 4 7 5 4 8 4 4 7 5 2 1 1 5
17 15 14 16 20 20 21 22 22 20 19 18 17 17 16 15 14 13 11 11 11 10 9 8 7 5 4 2 2 3 6 6 7 5 5 5 5 6 5 2 3 3 4
19 15 12 11 15 20 19 20 20 21 19 18 17 16 16 16 14 12 12 11 10 9 8 7 6 5 4 3 4 6 7 7 4 2 2 2 6 7 9 7 8 6 5
19 17 13 11 12 12 12 18 18 19 19 17 16 16 16 16 14 12 11 10 9 8 7 6 5 5 5 6 7 7 8 10 2 3 3 3 6 10 11 12 13 10 7
18 18 16 14 10 10 10 12 15 18 17 17 15 16 14 7 8 10 9 10 9 7 7 6 5 5 5 7 8 9 10 4 1 2 3 6 7 10 11 11 11 11 11
19 18 17 17 14 12 10 12 9 12 9 8 9 10 6 8 6 8 8 11 10 8 7 6 7 6 6 4 4 8 4 4 3 4 3 6 7 10 10 9 8 8 8
22 17 19 18 17 14 11 8 6 5 6 6 9 9 6 7 6 4 3 4 4 7 3 5 4 4 5 4 5 4 3 3 1 4 4 6 7 8 8 8 7 8 8
23 23 22 21 18 15 11 9 9 7 7 6 8 10 5 5 5 6 4 5 5 4 5 5 3 5 6 7 7 9 7 1 4 3 4 6 6 6 6 7 7 7 8
19 23 24 22 20 15 15 11 10 9 8 8 9 10 5 6 7 7 6 5 6 4 5 5 5 5 5 6 2 1 4 8 7 4 3 7 6 5 5 6 7 7 7
21 23 24 23 21 20 16 16 12 10 10 9 9 10 10 6 8 8 7 6 5 5 7 4 7 5 3 2 1 1 2 2 6 5 3 4 7 6 4 5 5 3 4
13 22 24 22 20 22 21 17 13 11 12 10 10 12 12 6 10 8 7 5 5 5 8 5 5 3 2 1 2 1 1 1 5 4 4 3 4 5 4 4 3 3 3
9 21 23 22 20 22 19 16 12 12 11 10 10 9 13 8 10 6 5 6 5 5 4 4 3 4 1 2 2 2 1 3 4 2 4 4 4 3 5 5 7 6 3
7 15 16 15 20 20 16 13 13 14 11 10 10 9 12 10 9 6 5 4 5 3 4 3 4 3 3 2 3 2 2 2 3 4 4 5 4 5 4 8 10 6 4
10 12 16 14 0 11 9 7 7 9 10 8 11 10 11 9 9 6 5 6 5 6 5 4 4 3 3 2 3 3 2 1 2 2 1 1 1 4 4 5 3 2 7
8 14 15 18 20 10 4 2 7 7 7 7 10 14 11 10 9 7 5 6 5 6 6 4 3 5 4 2 2 4 3 1 1 1 2 3 3 5 2 2 2 1 3
10 16 16 19 25 23 17 6 3 4 3 5 10 12 11 12 9 7 7 7 7 6 7 6 4 3 2 1 2 2 2 5 4 4 2 2 4 3 5 5 4 2 4
18 14 18 20 23 24 24 16 6 3 3 4 10 10 9 13 9 8 7 8 7 6 6 4 5 6 4 1 3 4 4 1 2 4 3 6 6 4 5 6 8 6 5
23 15 19 20 22 19 22 18 18 14 13 6 10 11 9 12 9 10 8 10 9 6 7 5 4 4 5 3 3 3 5 2 1 3 4 4 5 6 6 4 5 5 6
12 12 18 22 22 23 22 20 18 15 9 11 10 14 14 8 10 10 10 10 9 7 6 5 5 6 4 4 3 3 4 4 4 3 1 5 4 4 4 3 5 5 6
9 10 17 23 22 21 20 22 22 20 15 14 14 12 11 9 9 10 10 10 9 8 6 5 6 7 6 5 5 5 4 3 1 3 1 2 2 4 2 4 4 4 4
Wind_Direction
153 150 146 135 131 127 125 121 117 115 111 109 105 102 99 101 103 103 104 104 106 108 106 101 94 92 93 92 94 96 97 107 115 117 106 102 101 96 84 60 134 99 101
140 153 148 135 133 129 127 124 123 121 117 116 113 112 109 105 107 109 110 109 111 112 108 105 99 96 96 95 93 95 99 101 100 108 109 111 118 114 101 85 96 109 117
134 149 144 137 135 131 129 127 127 125 125 123 121 120 113 114 112 111 110 112 113 119 118 114 109 106 102 101 98 103 112 101 108 125 135 113 107 124 126 120 119 131 137
133 147 146 141 136 132 131 130 130 130 131 129 127 126 123 122 116 113 115 117 116 116 120 118 118 115 115 114 115 120 101 90 44 339 266 262 175 165 140 138 148 160 180
133 138 150 141 138 137 135 133 134 135 135 134 134 133 131 127 121 121 118 118 120 124 124 124 124 124 124 113 101 331 341 2 334 300 259 249 208 177 150 168 181 197 218
139 136 150 141 141 141 138 137 139 139 139 139 139 139 135 128 125 121 120 122 124 127 126 127 132 127 125 124 142 312 333 333 327 304 291 244 175 154 153 193 228 289 284
138 139 146 145 142 144 144 142 142 142 143 142 144 144 139 129 131 121 124 126 127 127 133 138 133 130 139 150 201 308 310 323 321 324 314 135 141 138 138 135 85 278 264
130 137 143 148 144 147 149 147 147 146 147 146 148 147 141 135 131 130 134 138 137 139 142 144 143 143 148 175 248 291 304 313 314 16 358 91 115 113 93 52 355 313 286
134 132 136 147 152 151 151 151 150 147 148 147 149 147 144 139 135 145 145 144 140 141 142 152 147 156 177 211 250 264 275 282 298 338 272 105 133 106 67 42 19 348 321
137 138 139 139 156 148 152 152 150 149 146 145 147 145 143 140 144 149 143 146 143 145 152 161 167 183 210 236 250 264 276 284 34 254 110 147 126 90 75 59 47 31 5
141 145 146 144 148 145 145 153 147 146 143 144 146 145 140 143 146 149 155 147 148 156 168 173 193 214 238 261 264 267 271 271 327 206 141 148 108 89 76 65 61 52 42
148 149 154 151 152 152 154 157 144 154 147 149 148 151 150 149 151 166 160 156 156 170 183 193 212 222 249 260 260 261 257 277 293 114 125 136 124 96 82 71 62 53 39
157 155 160 156 156 156 144 151 148 146 151 153 154 161 167 161 170 135 137 151 156 184 199 209 219 221 228 235 257 236 268 250 134 111 141 153 107 95 87 75 60 45 33
160 164 160 161 160 158 147 158 156 158 162 161 166 172 165 165 150 149 160 173 174 186 207 200 214 222 222 236 251 256 234 193 130 120 154 130 105 101 97 86 56 39 37
172 163 163 161 164 150 153 161 159 162 166 167 163 181 169 170 166 163 177 180 191 172 209 192 208 221 243 234 131 131 61 110 136 150 162 140 131 122 115 95 80 67 57
166 169 165 167 166 156 159 162 163 163 169 166 168 181 187 173 172 176 177 191 190 181 210 191 210 210 192 196 145 84 24 89 123 142 150 156 153 149 126 109 95 98 81
166 168 168 168 160 162 161 161 165 168 171 173 173 178 190 172 180 172 172 191 193 209 193 185 154 98 118 281 176 161 239 19 87 113 138 162 160 145 140 132 170 209 107
175 170 176 167 166 161 160 162 168 173 173 173 176 177 186 172 178 165 169 182 157 163 138 107 110 119 98 0 268 241 99 83 133 48 77 133 172 163 190 189 228 235 132
170 174 175 185 159 161 160 166 167 171 175 174 172 174 183 168 169 152 160 164 160 139 105 107 73 103 90 24 21 356 243 116 104 96 89 118 169 175 195 218 231 233 190
169 179 172 146 136 142 155 166 157 162 180 160 172 172 171 159 157 149 147 138 133 113 99 84 103 86 114 81 359 345 271 145 128 119 141 48 239 204 193 207 246 206 207
180 174 176 150 148 131 270 283 176 158 163 151 166 164 162 152 151 145 144 128 123 116 121 132 130 111 41 37 68 338 351 317 30 105 166 236 286 242 233 1 201 123 227
212 169 174 167 163 172 157 205 228 141 159 139 161 163 156 148 151 141 138 130 127 118 112 119 131 112 92 349 117 126 30 342 348 330 185 274 293 302 353 355 345 63 20
230 178 173 172 173 174 171 180 174 117 132 113 166 158 154 149 143 129 145 130 120 120 123 121 126 141 151 344 94 130 34 276 304 350 347 29 15 10 3 16 32 31 22
230 201 180 172 172 181 171 163 174 179 188 168 161 157 149 146 128 133 135 130 129 127 119 141 153 102 120 132 46 20 99 161 69 346 354 15 18 30 22 23 22 4 29
235 219 186 175 172 176 174 174 176 181 192 149 153 147 145 131 122 133 130 128 124 120 139 142 94 83 60 86 96 51 60 81 43 94 294 320 17 6 360 22 7 23 35
230 209 188 177 176 180 180 178 177 178 178 157 155 145 143 129 129 125 119 125 126 129 106 98 87 83 92 82 78 67 80 94 52 69 40 318 340 326 327 12 42 33 38